Regional Weather Roundup
Issued by NWS San Diego, CA

Home | Current Version | Previous Version | Text Only | Print | Product List | Glossary On
Versions: 1 2 3 4 5 6 7 8 9 10 11 12 13 14 15 16 17 18 19 20 21 22 23 24 25 26 27 28 29 30 31 32 33 34 35 36 37 38 39 40 41 42 43 44 45 46 47 48 49 50
601
ASUS46 KSGX 041511
RWRSGX

SAN DIEGO HOURLY WEATHER ROUNDUP
NATIONAL WEATHER SERVICE SAN DIEGO CA
800 AM PDT WED MAY 04 2016

NOTE: "FAIR" INDICATES FEW OR NO CLOUDS BELOW 12,000 FEET WITH NO
SIGNIFICANT WEATHER AND/OR OBSTRUCTIONS TO VISIBILITY.

CAZ042-043-060-061-PZZ750-775-041600-

GREATER SAN DIEGO AREA

CITY           SKY/WX    TMP DP  RH WIND       PRES   REMARKS
LINDBERGH FLD  CLOUDY    62  53  72 NW3       29.97R
POINT LOMA       N/A     59  58  96 N1          N/A
NATIONAL CITY    N/A     62  57  83 W1        29.97R
CHULA VISTA      N/A     62  57  84 W2        29.89R
IMPERIAL BEACH CLOUDY    64  54  69 SW6       29.96R
BROWN FIELD    CLOUDY    60  55  83 CALM      29.96R
MIRAMAR MCAS   CLOUDY    63  53  70 CALM      29.95R
MONTGOMERY FLD CLOUDY    61  53  75 CALM      29.96R

$$

NORTH SAN DIEGO COUNTY

CITY           SKY/WX    TMP DP  RH WIND       PRES   REMARKS
CAMP PENDLETON CLOUDY    60  55  83 NE6       29.95S FOG
OCEANSIDE AP   CLOUDY    61  53  75 CALM      29.95S
OCEANSIDE HBR    N/A     61  57  86 CALM      29.98S
VISTA            N/A     58  54  85 CALM      29.93S
CARLSBAD       CLOUDY    60  55  83 CALM      29.94S
DEL MAR          N/A     60  55  83 CALM      29.98S
LA JOLLA SCRIP   N/A     60  55  84 SE2       29.95S
FALLBROOK        N/A     56  56 100 CALM      29.95R
SAN MARCOS       N/A     57  51  78 CALM      29.94R
POWAY            N/A     60  55  83 CALM      29.97R

$$

EAST SAN DIEGO COUNTY

CITY           SKY/WX    TMP DP  RH WIND       PRES   REMARKS
RAMONA         CLOUDY    55  52  89 CALM      29.96R FOG
SANTEE LAKES     N/A     61  57  85 CALM      29.95R
LA MESA          N/A     59  55  86 CALM      29.89R
JAMUL            N/A     57  54  88 CALM      29.95R
DESCANSO N       N/A     64  44  47 E6        29.81R
MT. LAGUNA OBS   N/A     55  35  47 E3        29.67
CAMPO            N/A     59  41  51 CALM      29.94S

$$

ORANGE COUNTY AND THE LOS ANGELES BASIN

CITY           SKY/WX    TMP DP  RH WIND       PRES   REMARKS
JOHN WAYNE AP  CLOUDY    61  55  81 VRB5      29.95R
LAKE FOREST FR   N/A     56  51  86 CALM      29.85F
HUNTINGTON BCH   N/A     60  57  90 CALM      29.97R
LOS ALAMITOS   FAIR      60  56  85 S6        29.95R
FULLERTON      CLOUDY    61  55  81 S3        29.94S
LONG BEACH     CLOUDY    60  55  83 S7        29.96R
L.A. AP        CLOUDY    59  54  83 SE3       29.96R FOG
L.A. DOWNTOWN  CLOUDY    60  55  83 CALM      29.95R HAZE

$$

THE INLAND EMPIRE

CITY           SKY/WX    TMP DP  RH WIND       PRES   REMARKS
CHINO          CLOUDY    59  55  87 CALM      29.96S FOG
ONTARIO        PTSUNNY   58  54  86 CALM      29.95S FOG
SAN BERNARDINO PTSUNNY   61  54  77 CALM      29.96R HAZE
RIVERSIDE AP   CLOUDY    57  53  86 W3        29.96R FOG
MORENO VALLEY    N/A     62  58  88 CALM      28.09R
MARCH ARB      MOSUNNY   59  55  86 E1        29.95R
HORSETHIEF CYN   N/A     59  49  70 CALM      29.95R
PERRIS           N/A     56  55  95 S1        29.95R
HEMET EAST       N/A     85  34  15 CALM      29.81S
FRENCH VALLEY  CLOUDY    54  52  94 CALM      29.96S VSB 1/4
TEMECULA         N/A     55  54  97 SW1       29.93R

$$

SAN BERNARDINO AND RIVERSIDE COUNTY MOUNTAINS

CITY           SKY/WX    TMP DP  RH WIND       PRES   REMARKS
BIG BEAR AP    SUNNY     46  32  57 CALM      30.14S
ANGELUS OAKS     N/A     51  39  64 CALM      29.84R
PINE COVE        N/A     57  36  45 SE2       29.89R

$$

SOUTHERN DESERT INCLUDING THE COACHELLA VALLEY

CITY           SKY/WX    TMP DP  RH WIND       PRES   REMARKS
PALM SPRINGS   SUNNY     77  41  27 CALM      29.87R
THOUSAND PALMS   N/A     80  39  23 SW7       29.83R
PALM DESERT      N/A     77  44  30 CALM      26.38
THERMAL        SUNNY     78  40  25 CALM      29.82R
BLYTHE         SUNNY     75  35  23 CALM      29.85S
IMPERIAL AP    SUNNY     74  46  36 W5        29.82R
EL CENTRO NAS  MOSUNNY   75  40  28 W6        29.84R
YUMA AZ        SUNNY     78  37  22 E5        29.83
MEXICALI       SUNNY     77  43  29 NW2       29.84R

$$

UPPER DESERT

CITY           SKY/WX    TMP DP  RH WIND       PRES   REMARKS
VICTORVILLE AP MOSUNNY   64  34  32 CALM      29.97S
HESPERIA         N/A     66  39  36 SE1       29.98S
PALMDALE       SUNNY     64  38  38 SE3       29.95R
LANCASTER      SUNNY     63  36  36 NE3       29.94S
EDWARDS AFB    MOSUNNY   57  31  37 N2        29.93R
DAGGETT        MOSUNNY   68  37  32 W6        29.93S
29 PALMS N     MOSUNNY   65  31  28 NW5       30.00S
NEEDLES        SUNNY     76  40  27 SE3       29.89S

$$

REGIONAL REPORTS

CITY           SKY/WX    TMP DP  RH WIND       PRES   REMARKS
SANTA BARBARA  CLOUDY    54  54 100 W6        29.96R FOG
SANDBERG       MOSUNNY   59  39  47 S12       30.01R
LAS VEGAS NV   MOSUNNY   74  34  23 N5        29.93R
PHOENIX AZ     SUNNY     78  38  23 SE7       29.91R
TIJUANA        CLOUDY    61  52  72 N3        29.98R FOG
ENSENADA NW      N/A     59  32  36 W6        29.94R

$$

OFFSHORE ISLANDS

CITY           SKY/WX    TMP DP  RH WIND       PRES   REMARKS
CATALINA ARPT  FOG       51  51 100 W7        29.97R VSB<1/4
SAN CLEMENTE I CLOUDY    57  51  80 W8        29.99R
SAN NICOLAS IS PTSUNNY   56  52  86 W7        29.96R

$$

MARINE AND OFFSHORE BUOY REPORTS

STATION/POSITION SKY/WX   TEMP    WIND        PRES    SWELL
                          AIR SEA DIR/SP/G            HT/PER/DIR
                          (F)     (DEG/KT/KT) (MB)    (FT/S/D)
TANNER BANKS               58 60  300/  4/  6 1014.4R   5/270/13
S CLEMENTE BASIN           56 61  280/  6/ 10 1014.6R   3/230/14
SAN NICOLAS IS.               58                N/A     5/270/13
SO. S. ROSA ISLA           56 56   CALM  /  2 1014.3R   5/270/13
W. S. BARBARA CH           55 56   40/  2/  2 1013.7R   5/290/12
M. S. BARBARA CH           54 56   10/  2/  4 1015.0S
S. MONICA BASIN            56 60  240/  8/ 10 1015.1R   3/200/13
S PEDRO CHANNEL               61                N/A     3/260/13
OCEANSIDE OFFSHR              64                N/A     2/190/14
TORREY PINES OTR              65                N/A     3/220/13
LA JOLLA 1                 60 66  210/  4/  6 1014.2R
SAN DIEGO BAY                 68              1014.5R
POINT LOMA SOUTH              64                N/A     3/200/14

$$





USA.gov is the U.S. government's official web portal to all federal, state and local government web resources and services.